Date String (YYYY-MM-DD hh:mm:ss) UTC,Instrument flags,Ambient pressure (hPa),Sample flow (lpm),Bypass flow (lpm),Sample temperature (°C),Ambient temperature (°C),ASC tube jacket temperature (°C),LED temperature (°C),Box temperature (°C),Sample RH (%),Span deviation,Mass concentration (μg/m³),Mass concentration (μg/m³),Mass concentration (μg/m³)
DateTimeUTC,F1_M11,P_M11,Q1_M11,Q2_M11,T1_M11,T2_M11,T3_M11,T4_M11,T5_M11,U1_M11,ZSPAN_M11,X2_M11,X0_M11,X1_M11
2023-01-30 01:00:00,,0825.8,4.99,0.00,22.6,23.0,00.0,31.3,24.5,04.3,0001.2,0005.39,0008.27,0004.90
2023-01-30 01:01:00,,0825.8,4.99,0.00,22.6,22.6,00.0,31.3,24.5,04.3,0000.5,0005.38,0008.28,0004.90
2023-01-30 01:02:00,,0825.8,5.00,0.00,22.6,22.0,00.0,31.3,24.3,04.3,0000.2,0005.38,0008.30,0004.89
2023-01-30 01:03:00,,0825.9,4.99,0.00,22.5,21.5,00.0,31.3,24.2,04.3,-000.1,0005.39,0008.31,0004.89
2023-01-30 01:04:00,,0826.0,5.00,0.00,22.5,21.1,00.0,31.3,24.0,04.3,-000.6,0005.40,0008.35,0004.89
2023-01-30 01:05:00,,0825.9,5.02,0.00,22.4,20.8,00.0,31.3,23.9,04.3,-000.9,0005.41,0008.42,0004.89
2023-01-30 01:06:00,,0825.9,5.00,0.00,22.3,20.5,00.0,31.3,23.8,04.3,-001.2,0005.40,0008.41,0004.89
2023-01-30 01:07:00,,0826.0,5.00,0.00,22.3,20.7,00.0,31.3,23.9,04.3,-001.0,0005.39,0008.42,0004.87
2023-01-30 01:08:00,,0825.9,5.01,0.00,22.4,21.8,00.0,31.2,24.2,04.3,-001.0,0005.39,0008.42,0004.86
2023-01-30 01:09:00,,0826.0,4.98,0.00,22.5,22.6,00.0,31.2,24.4,04.3,-001.1,0005.37,0008.37,0004.85
2023-01-30 01:10:00,,0825.9,5.01,0.00,22.6,23.0,00.0,31.3,24.6,04.3,-001.3,0005.37,0008.37,0004.86
2023-01-30 01:11:00,,0825.9,4.98,0.00,22.6,22.4,00.0,31.3,24.5,04.3,-000.9,0005.37,0008.41,0004.87
2023-01-30 01:12:00,,0826.0,5.00,0.00,22.6,21.8,00.0,31.3,24.3,04.3,-000.1,0005.37,0008.65,0004.87
2023-01-30 01:13:00,,0825.9,4.98,0.00,22.5,21.3,00.0,31.3,24.1,04.3,-000.1,0005.40,0008.70,0004.89
2023-01-30 01:14:00,,0825.8,5.00,0.00,22.5,21.0,00.0,31.3,24.0,04.3,-000.4,0005.43,0008.76,0004.91
2023-01-30 01:15:00,,0825.8,5.00,0.00,22.4,20.7,00.0,31.3,23.9,04.3,0000.1,0005.47,0008.84,0004.93
2023-01-30 01:16:00,,0825.9,4.98,0.00,22.4,20.5,00.0,31.3,23.9,04.3,0000.5,0005.49,0008.81,0004.96
2023-01-30 01:17:00,,0826.0,5.02,0.00,22.3,20.6,00.0,31.3,23.9,04.3,0000.5,0005.52,0008.85,0004.98
2023-01-30 01:18:00,,0826.0,4.99,0.00,22.4,21.6,00.0,31.3,24.2,04.3,0000.8,0005.56,0008.89,0005.02
2023-01-30 01:19:00,,0826.0,4.99,0.00,22.5,22.5,00.0,31.2,24.4,04.3,0000.8,0005.59,0008.94,0005.05
2023-01-30 01:20:00,,0826.1,5.00,0.00,22.6,23.0,00.0,31.3,24.6,04.3,0001.2,0005.67,0009.09,0005.08
2023-01-30 01:21:00,,0826.1,4.99,0.00,22.7,22.6,00.0,31.3,24.5,04.3,0001.6,0005.69,0009.11,0005.10
2023-01-30 01:22:00,,0826.0,4.99,0.00,22.6,22.0,00.0,31.4,24.4,04.3,0001.5,0005.73,0009.09,0005.13
2023-01-30 01:23:00,,0826.0,4.99,0.00,22.6,21.5,00.0,31.4,24.2,04.3,0001.0,0005.77,0008.87,0005.15
2023-01-30 01:24:00,,0826.0,5.00,0.00,22.5,21.1,00.0,31.4,24.1,04.3,0000.7,0005.80,0008.92,0005.17
2023-01-30 01:25:00,,0826.0,4.99,0.00,22.5,20.8,00.0,31.3,24.0,04.3,0000.9,0005.76,0008.81,0005.18
2023-01-30 01:26:00,,0826.0,5.01,0.00,22.4,20.6,00.0,31.3,23.9,04.3,0001.0,0005.75,0008.76,0005.19
2023-01-30 01:27:00,,0826.1,5.00,0.00,22.3,20.5,00.0,31.3,23.9,04.3,0000.9,0005.75,0008.77,0005.18
2023-01-30 01:28:00,,0826.1,5.00,0.00,22.4,21.4,00.0,31.3,24.1,04.3,0001.1,0005.76,0008.78,0005.19
2023-01-30 01:29:00,,0826.0,5.00,0.00,22.5,22.4,00.0,31.2,24.4,04.3,0001.0,0005.75,0008.75,0005.18
2023-01-30 01:30:00,,0826.0,5.00,0.00,22.6,23.0,00.0,31.3,24.6,04.3,0000.9,0005.75,0008.75,0005.18
2023-01-30 01:31:00,,0826.0,4.99,0.00,22.7,22.6,00.0,31.3,24.5,04.3,0000.6,0005.74,0008.73,0005.17
2023-01-30 01:32:00,,0826.0,5.02,0.00,22.6,22.0,00.0,31.4,24.3,04.3,0000.7,0005.73,0008.71,0005.17
2023-01-30 01:33:00,,0826.0,5.00,0.00,22.5,21.4,00.0,31.4,24.1,04.3,0000.7,0005.67,0008.63,0005.15
2023-01-30 01:34:00,,0826.1,5.00,0.00,22.5,21.0,00.0,31.4,24.0,04.3,0001.2,0005.66,0008.63,0005.14
2023-01-30 01:35:00,,0826.2,5.00,0.00,22.4,20.7,00.0,31.3,23.9,04.3,0001.2,0005.63,0008.56,0005.14
2023-01-30 01:36:00,,0826.2,5.00,0.00,22.3,20.4,00.0,31.3,23.8,04.3,0001.0,0005.64,0008.58,0005.14
2023-01-30 01:37:00,,0826.2,5.00,0.00,22.3,20.7,00.0,31.3,23.9,04.3,0000.8,0005.62,0008.55,0005.13
2023-01-30 01:38:00,,0826.2,5.00,0.00,22.4,21.8,00.0,31.3,24.2,04.3,0001.0,0005.61,0008.52,0005.13
2023-01-30 01:39:00,,0826.2,4.99,0.00,22.5,22.7,00.0,31.2,24.5,04.3,0000.8,0005.58,0008.43,0005.12
2023-01-30 01:40:00,,0826.2,5.00,0.00,22.6,23.0,00.0,31.3,24.6,04.3,0000.7,0005.62,0008.56,0005.12
2023-01-30 01:41:00,,0826.1,5.00,0.00,22.7,22.5,00.0,31.3,24.5,04.3,0001.1,0005.66,0008.69,0005.12
2023-01-30 01:42:00,,0826.2,5.00,0.00,22.6,21.9,00.0,31.4,24.3,04.3,0001.4,0005.66,0008.66,0005.13
2023-01-30 01:43:00,,0826.2,5.00,0.00,22.6,21.4,00.0,31.4,24.2,04.3,0001.1,0005.68,0008.68,0005.15
2023-01-30 01:44:00,,0826.1,5.00,0.00,22.5,21.0,00.0,31.4,24.1,04.3,0001.4,0005.70,0008.82,0005.16
2023-01-30 01:45:00,,0826.2,5.00,0.00,22.4,20.7,00.0,31.4,24.0,04.3,0001.0,0005.68,0008.74,0005.16
2023-01-30 01:46:00,,0826.2,5.00,0.00,22.4,20.5,00.0,31.3,23.9,04.4,0001.4,0005.70,0008.76,0005.16
2023-01-30 01:47:00,,0826.1,5.02,0.00,22.3,20.7,00.0,31.3,23.9,04.3,0001.3,0005.72,0008.80,0005.16
2023-01-30 01:48:00,,0826.2,5.00,0.00,22.4,21.8,00.0,31.3,24.2,04.3,0001.1,0005.72,0008.81,0005.17
2023-01-30 01:49:00,,0826.2,5.00,0.00,22.5,22.6,00.0,31.3,24.4,04.3,0001.1,0005.72,0008.83,0005.18
2023-01-30 01:50:00,,0826.2,5.00,0.00,22.6,23.1,00.0,31.3,24.6,04.3,0001.3,0005.77,0008.94,0005.20
2023-01-30 01:51:00,,0826.2,4.99,0.00,22.7,22.6,00.0,31.3,24.5,04.3,0001.3,0005.77,0008.95,0005.21
2023-01-30 01:52:00,,0826.2,4.97,0.00,22.6,22.0,00.0,31.4,24.3,04.3,0001.3,0005.76,0008.85,0005.23
2023-01-30 01:53:00,,0826.2,4.98,0.00,22.6,21.5,00.0,31.4,24.2,04.3,0001.1,0005.74,0008.80,0005.22
2023-01-30 01:54:00,,0826.2,5.02,0.00,22.5,21.1,00.0,31.4,24.1,04.3,0000.8,0005.76,0008.91,0005.22
2023-01-30 01:55:00,,0826.2,5.00,0.00,22.5,20.8,00.0,31.4,24.0,04.3,0000.6,0005.78,0008.87,0005.22
2023-01-30 01:56:00,,0826.2,5.00,0.00,22.4,20.5,00.0,31.3,23.9,04.3,0000.3,0005.84,0009.02,0005.23
2023-01-30 01:57:00,,0826.2,5.01,0.00,22.3,20.7,00.0,31.3,23.9,04.3,0000.2,0005.83,0009.03,0005.22
2023-01-30 01:58:00,,0826.3,5.00,0.00,22.4,21.6,00.0,31.3,24.2,04.3,-000.1,0005.83,0009.07,0005.21
2023-01-30 01:59:00,,0826.3,4.99,0.00,22.5,22.5,00.0,31.3,24.4,04.3,0000.3,0005.86,0009.13,0005.22
